Weather History for KLFI - May, 2013

Change the Weather History Date:

Sunday, May 19, 2013

  Actual Average Record
Temperature  
Mean Temperature 71 °F -  
Max Temperature 76 °F 77 °F 90 °F (1949)
Min Temperature 66 °F 60 °F 46 °F (1976)
Cooling Degree Days 6    
Growing Degree Days 21 (Base 50)    
Moisture  
Dew Point 69 °F    
Average Humidity 97    
Maximum Humidity 100    
Minimum Humidity 76    
Precipitation  
Precipitation 0.42 in - - ()
Sea Level Pressure  
Sea Level Pressure 30.16 in    
Wind  
Wind Speed 3 mph (SW)    
Max Wind Speed 13 mph    
Max Gust Speed -    
Visibility 8 miles    
Events Rain , Thunderstorm    
Averages and records for this station are not official NWS values.
T = Trace of Precipitation, MM = Missing Value Source: NWS Daily Summary

Daily Weather History Graph

Daily Weather History Graph

Search for Another Location

Airport or City:

Trip Planner

Search our weather history database for the weather conditions in past years. The results will help you decide how hot, cold, wet, or windy it might be!

Date:

Astronomy

May. 19, 2013 Rise Set
Actual Time 5:53 AM EDT 8:10 PM EDT
Civil Twilight 5:24 AM EDT 8:39 PM EDT
Nautical Twilight 4:48 AM EDT 9:15 PM EDT
Astronomical Twilight 4:09 AM EDT 9:55 PM EDT
Moon 2:20 PM EDT (5/19) 2:07 AM EDT (5/19)
Length of Visible Light 15h 15m
Length of Day
14h 16m
Waxing Gibbous, 65% of the Moon is Illuminated
May 19
Waxing Gibbous
May 25
Full
May 31
Last Quarter
Jun 8
New
Jun 16
First Quarter

Hourly Weather History & Observations

Time (EDT) Temp. Dew Point Humidity Pressure Visibility Wind Dir Wind Speed Gust Speed Precip Events Conditions
12:03 AM 66.2 °F 66.2 °F 100% 30.17 in 10.0 mi NE 1.2 mph - N/A   Overcast
12:13 AM 66.2 °F 66.2 °F 100% 30.17 in 9.0 mi North 2.3 mph - N/A   Overcast
12:23 AM 66.2 °F 66.2 °F 100% 30.17 in 9.0 mi Calm Calm - N/A   Overcast
12:28 AM 66.2 °F 66.2 °F 100% 30.17 in 10.0 mi West 1.2 mph - N/A   Overcast
12:33 AM 66.2 °F 66.2 °F 100% 30.17 in 9.0 mi West 2.3 mph - N/A   Overcast
12:58 AM 66.0 °F 66.0 °F 100% 30.19 in 9.0 mi Calm Calm - N/A   Overcast
1:18 AM 66.2 °F 66.2 °F 100% 30.16 in 8.0 mi West 3.5 mph - N/A   Mostly Cloudy
1:22 AM 66.2 °F 66.2 °F 100% 30.16 in 7.0 mi West 2.3 mph - N/A Rain Light Rain
1:27 AM 66.2 °F 66.2 °F 100% 30.16 in 6.0 mi West 2.3 mph - N/A Rain Light Rain
1:37 AM 66.2 °F 66.2 °F 100% 30.16 in 5.0 mi Calm Calm - N/A Rain Light Rain
1:42 AM 66.2 °F 66.2 °F 100% 30.16 in 6.0 mi Calm Calm - N/A Rain Light Rain
1:47 AM 66.2 °F 66.2 °F 100% 30.15 in 8.0 mi Calm Calm - N/A Rain Light Rain
1:50 AM 66.2 °F 66.2 °F 100% 30.15 in 8.0 mi WSW 2.3 mph - N/A   Mostly Cloudy
1:55 AM 66.2 °F 66.2 °F 100% 30.15 in 8.0 mi Calm Calm - N/A   Mostly Cloudy
1:58 AM 66.0 °F 66.0 °F 100% 30.17 in 7.0 mi Variable 1.2 mph - 0.01 in   Mostly Cloudy
2:00 AM 66.2 °F 66.2 °F 100% 30.15 in 7.0 mi ESE 3.5 mph - N/A Rain Light Rain
2:05 AM 66.2 °F 66.2 °F 100% 30.15 in 8.0 mi South 3.5 mph - N/A Rain Light Rain
2:10 AM 66.2 °F 66.2 °F 100% 30.15 in 7.0 mi South 2.3 mph - N/A Rain Light Rain
2:20 AM 66.2 °F 66.2 °F 100% 30.15 in 7.0 mi Calm Calm - N/A Rain Light Rain
2:26 AM 66.2 °F 66.2 °F 100% 30.14 in 8.0 mi West 1.2 mph - N/A   Overcast
2:28 AM 66.2 °F 66.2 °F 100% 30.14 in 8.0 mi WSW 1.2 mph - N/A Rain Light Rain
2:37 AM 66.2 °F 66.2 °F 100% 30.14 in 8.0 mi Calm Calm - N/A   Overcast
2:42 AM 66.2 °F 66.2 °F 100% 30.14 in 9.0 mi Calm Calm - N/A   Overcast
2:58 AM 66.7 °F 66.7 °F 100% 30.16 in 10.0 mi Calm Calm - 0.00 in   Overcast
3:03 AM 66.2 °F 66.2 °F 100% 30.14 in 10.0 mi Calm Calm - N/A   Overcast
3:08 AM 66.2 °F 66.2 °F 100% 30.14 in 8.0 mi North 1.2 mph - N/A   Overcast
3:11 AM 66.2 °F 66.2 °F 100% 30.14 in 8.0 mi NNW 2.3 mph - N/A   Overcast
3:26 AM 68.0 °F 68.0 °F 100% 30.14 in 7.0 mi Calm Calm - N/A   Overcast
3:31 AM 68.0 °F 68.0 °F 100% 30.14 in 7.0 mi SSW 1.2 mph - N/A   Overcast
3:58 AM 67.6 °F 67.6 °F 100% 30.16 in 8.0 mi South 3.5 mph - N/A   Overcast
4:08 AM 68.0 °F 68.0 °F 100% 30.14 in 9.0 mi SSW 5.8 mph - N/A   Overcast
4:13 AM 68.0 °F 68.0 °F 100% 30.14 in 10.0 mi SSW 4.6 mph - N/A   Overcast
4:31 AM 68.0 °F 68.0 °F 100% 30.14 in 10.0 mi SSW 5.8 mph - N/A   Overcast
4:36 AM 68.0 °F 68.0 °F 100% 30.14 in 10.0 mi SSW 6.9 mph - N/A   Overcast
4:41 AM 68.0 °F 68.0 °F 100% 30.14 in 10.0 mi SSW 6.9 mph - N/A   Overcast
4:51 AM 68.0 °F 68.0 °F 100% 30.14 in 10.0 mi SW 5.8 mph - N/A   Overcast
4:58 AM 68.2 °F 68.2 °F 100% 30.16 in 10.0 mi SSW 5.8 mph - N/A   Overcast
5:03 AM 68.0 °F 68.0 °F 100% 30.14 in 9.0 mi SSW 5.8 mph - N/A   Overcast
5:28 AM 68.0 °F 68.0 °F 100% 30.15 in 8.0 mi SSW 3.5 mph - N/A   Overcast
5:58 AM 68.2 °F 68.2 °F 100% 30.17 in 7.0 mi SW 4.6 mph - N/A   Overcast
6:03 AM 68.0 °F 68.0 °F 100% 30.15 in 6.0 mi SSW 2.3 mph - N/A   Overcast
6:38 AM 68.0 °F 68.0 °F 100% 30.15 in 4.0 mi South 2.3 mph - N/A   Overcast
6:53 AM 68.0 °F 68.0 °F 100% 30.15 in 4.0 mi South 3.5 mph - N/A   Overcast
6:58 AM 68.5 °F 68.5 °F 100% 30.17 in 4.0 mi South 3.5 mph - N/A   Overcast
7:13 AM 68.0 °F 68.0 °F 100% 30.16 in 4.0 mi South 3.5 mph - N/A   Overcast
7:19 AM 69.8 °F 69.8 °F 100% 30.15 in 5.0 mi South 4.6 mph - N/A   Overcast
7:24 AM 69.8 °F 69.8 °F 100% 30.16 in 6.0 mi South 4.6 mph - N/A   Overcast
7:29 AM 69.8 °F 69.8 °F 100% 30.16 in 6.0 mi South 4.6 mph - N/A   Overcast
7:34 AM 69.8 °F 69.8 °F 100% 30.16 in 7.0 mi South 3.5 mph - N/A   Overcast
7:39 AM 69.8 °F 69.8 °F 100% 30.16 in 8.0 mi SSW 3.5 mph - N/A   Overcast
7:54 AM 69.8 °F 69.8 °F 100% 30.17 in 8.0 mi SSW 2.3 mph - N/A   Overcast
7:58 AM 69.1 °F 69.1 °F 100% 30.19 in 9.0 mi South 3.5 mph - N/A   Overcast
8:58 AM 70.2 °F 70.2 °F 100% 30.20 in 10.0 mi WSW 2.3 mph - N/A   Overcast
9:08 AM 69.8 °F 69.8 °F 100% 30.18 in 10.0 mi West 5.8 mph - N/A   Overcast
9:23 AM 69.8 °F 69.8 °F 100% 30.18 in 10.0 mi West 4.6 mph - N/A   Overcast
9:48 AM 71.6 °F 71.6 °F 100% 30.18 in 10.0 mi West 3.5 mph - N/A Rain Light Rain
9:50 AM 71.6 °F 71.6 °F 100% 30.19 in 10.0 mi WSW 4.6 mph - N/A   Mostly Cloudy
9:58 AM 71.4 °F 71.4 °F 100% 30.21 in 10.0 mi SW 3.5 mph - 0.00 in   Mostly Cloudy
10:58 AM 73.2 °F 72.0 °F 96% 30.21 in 10.0 mi Variable 2.3 mph - N/A   Mostly Cloudy
11:08 AM 73.4 °F 71.6 °F 94% 30.20 in 10.0 mi Variable 1.2 mph - N/A   Mostly Cloudy
11:18 AM 73.4 °F 71.6 °F 94% 30.19 in 10.0 mi Variable 2.3 mph - N/A   Mostly Cloudy
11:23 AM 73.4 °F 71.6 °F 94% 30.19 in 10.0 mi SW 3.5 mph - N/A   Mostly Cloudy
11:28 AM 73.4 °F 71.6 °F 94% 30.20 in 10.0 mi West 2.3 mph - N/A   Mostly Cloudy
11:38 AM 73.4 °F 71.6 °F 94% 30.19 in 10.0 mi Variable 1.2 mph - N/A   Mostly Cloudy
11:43 AM 73.4 °F 71.6 °F 94% 30.19 in 10.0 mi West 4.6 mph - N/A   Mostly Cloudy
11:58 AM 73.9 °F 71.8 °F 93% 30.21 in 10.0 mi Variable 2.3 mph - N/A   Mostly Cloudy
12:23 PM 75.2 °F 71.6 °F 89% 30.18 in 10.0 mi West 3.5 mph - N/A   Mostly Cloudy
12:28 PM 75.2 °F 71.6 °F 89% 30.18 in 10.0 mi Variable 2.3 mph - N/A   Mostly Cloudy
12:38 PM 75.2 °F 69.8 °F 83% 30.18 in 10.0 mi Variable 1.2 mph - N/A   Overcast
12:43 PM 75.2 °F 71.6 °F 89% 30.18 in 10.0 mi NE 8.1 mph - N/A   Overcast
12:58 PM 73.6 °F 72.5 °F 96% 30.20 in 10.0 mi ENE 8.1 mph - N/A   Overcast
1:13 PM 75.2 °F 73.4 °F 94% 30.17 in 10.0 mi East 5.8 mph - N/A   Mostly Cloudy
1:14 PM 75.2 °F 71.6 °F 89% 30.17 in 10.0 mi East 5.8 mph - N/A Rain Light Rain
1:19 PM 75.2 °F 71.6 °F 89% 30.17 in 10.0 mi East 5.8 mph - N/A Rain Light Rain
1:58 PM 76.1 °F 72.7 °F 89% 30.17 in 10.0 mi ENE 9.2 mph - 0.00 in   Light Drizzle
2:00 PM 75.2 °F 73.4 °F 94% 30.15 in 10.0 mi ESE 6.9 mph - N/A   Mostly Cloudy
2:58 PM 74.8 °F 70.3 °F 86% 30.16 in 10.0 mi East 12.7 mph - 0.00 in   Scattered Clouds
3:52 PM 75.2 °F 68.0 °F 78% 30.11 in 10.0 mi ESE 6.9 mph - N/A Rain Light Rain
3:58 PM 75.7 °F 67.8 °F 76% 30.13 in 10.0 mi ESE 6.9 mph - 0.00 in Rain Light Rain
3:59 PM 75.2 °F 68.0 °F 78% 30.11 in 10.0 mi ESE 6.9 mph - N/A   Scattered Clouds
4:54 PM 75.2 °F 68.0 °F 78% 30.11 in 10.0 mi ESE 4.6 mph - N/A Rain Light Rain
4:58 PM 74.5 °F 68.4 °F 81% 30.13 in 10.0 mi Variable 4.6 mph - 0.00 in Rain Light Rain
5:14 PM 73.4 °F 69.8 °F 88% 30.11 in 10.0 mi East 6.9 mph - N/A   Mostly Cloudy
5:58 PM 74.3 °F 70.2 °F 87% 30.12 in 10.0 mi ESE 5.8 mph - 0.00 in   Scattered Clouds
6:07 PM 75.2 °F 71.6 °F 89% 30.10 in 10.0 mi ESE 5.8 mph - N/A Rain Light Rain
6:17 PM 75.2 °F 71.6 °F 89% 30.10 in 10.0 mi Variable 5.8 mph - N/A   Scattered Clouds
6:58 PM 74.7 °F 70.2 °F 86% 30.12 in 10.0 mi SE 6.9 mph - 0.00 in   Mostly Cloudy
7:58 PM 73.2 °F 69.6 °F 88% 30.13 in 10.0 mi ESE 6.9 mph - N/A   Mostly Cloudy
8:58 PM 71.4 °F 71.1 °F 99% 30.15 in 10.0 mi West 11.5 mph - N/A   Overcast
9:03 PM 71.6 °F 69.8 °F 94% 30.14 in 10.0 mi West 9.2 mph - N/A   Overcast
9:08 PM 71.6 °F 68.0 °F 88% 30.14 in 10.0 mi West 10.4 mph - N/A   Overcast
9:09 PM 69.8 °F 68.0 °F 94% 30.14 in 8.0 mi West 10.4 mph - N/A Rain Light Rain
9:11 PM 69.8 °F 69.8 °F 100% 30.14 in 3.0 mi West 10.4 mph - N/A Rain Light Rain
9:16 PM 69.8 °F 69.8 °F 100% 30.14 in 2.0 mi West 8.1 mph - N/A Rain Light Rain
9:21 PM 68.0 °F 68.0 °F 100% 30.14 in 4.0 mi WNW 5.8 mph - N/A Rain , Thunderstorm Light Rain
9:26 PM 68.0 °F 68.0 °F 100% 30.14 in 10.0 mi WNW 4.6 mph - N/A Rain , Thunderstorm Light Rain
9:29 PM 68.0 °F 68.0 °F 100% 30.14 in 7.0 mi WNW 4.6 mph - N/A Rain , Thunderstorm Light Rain
9:34 PM 68.0 °F 68.0 °F 100% 30.15 in 2.5 mi WNW 4.6 mph - N/A Rain Heavy Rain
9:39 PM 68.0 °F 68.0 °F 100% 30.15 in 2.0 mi WNW 1.2 mph - N/A Rain Light Rain
9:44 PM 68.0 °F 68.0 °F 100% 30.15 in 4.0 mi Calm Calm - N/A Rain Light Rain
9:54 PM 68.0 °F 68.0 °F 100% 30.15 in 5.0 mi West 3.5 mph - N/A Rain Light Rain
9:58 PM 67.6 °F 67.6 °F 100% 30.17 in 5.0 mi West 2.3 mph - 0.26 in Rain Rain
10:13 PM 68.0 °F 68.0 °F 100% 30.17 in 6.0 mi SW 6.9 mph - N/A Rain Light Rain
10:18 PM 68.0 °F 68.0 °F 100% 30.17 in 4.0 mi SSW 8.1 mph - N/A Rain Heavy Rain
10:23 PM 68.0 °F 68.0 °F 100% 30.16 in 4.0 mi SSW 5.8 mph - N/A Rain Heavy Rain
10:28 PM 68.0 °F 68.0 °F 100% 30.16 in 5.0 mi SSW 5.8 mph - N/A Rain Light Rain
10:33 PM 66.2 °F 66.2 °F 100% 30.16 in 10.0 mi SW 5.8 mph - N/A Rain Light Rain
10:58 PM 66.9 °F 66.9 °F 100% 30.18 in 10.0 mi SSW 5.8 mph - 0.14 in   Light Drizzle
11:55 PM 68.0 °F 68.0 °F 100% 30.15 in 10.0 mi South 1.2 mph - N/A   Overcast
11:58 PM 67.8 °F 67.8 °F 100% 30.17 in 10.0 mi SSW 2.3 mph - 0.01 in   Mostly Cloudy